Tracking 19485 objects as of 22-Jan-2019
HD Live streaming from Space Station
objects crossing your sky now

APRIZESAT 6

Track APRIZESAT 6 now!
10-day predictions
APRIZESAT 6 is classified as:


NORAD ID: 37793
Int'l Code: 2011-044F
Perigee: 627.3 km
Apogee: 694.1 km
Inclination: 98.4 °
Period: 97.8 minutes
Semi major axis: 7031 km
RCS: 0.203 m2 (medium)
Launch date: August 17, 2011
Source: United States (US)
Launch site: Orenburg, Russia (OREN)
aabbcc
Your satellite tracking list
Your tracking list is empty




NASA's NSSDC Master Catalog

Two Line Element Set (TLE):
1 37793U 11044F   19021.89014351  .00000023  00000-0  12305-4 0  9993
2 37793  98.3664 174.4941 0047462  26.4414 130.1769 14.72360480399150
Source of the keplerian elements: AFSPC